Timestamp[UTC];2m Lufttemperatur [degC] (tas);Stations-Luftdruck [Pa] (ps);relative Luftfeuchtigkeit [%] (hurs);spezifische Luftfeuchtigkeit [kg/kg] (huss);Niederschlagsmenge [mm] (pr);Windgeschwindigkeit in 2m [m/s] (sfcWind);Windrichtung [deg];maximale Windgeschwindigkeit [m/s] (wsgsmax);u-Windkomponente [m/s] (uas);v-Windkomponente [m/s] (vas);Sonneneinstrahlung [W/m2];Blitzrate [n];Blitzentfernung [km];Bodenfeuchte in 5cm Tiefe [vol%];Bodenfeuchte in 15cm Tiefe [vol%];Bodenfeuchte in 30cm Tiefe [vol%];Bodenfeuchte in 60cm Tiefe [vol%];Bodentemperatur in 5cm Tiefe [degC];Bodentemperatur in 15cm Tiefe [degC];Bodentemperatur in 30cm Tiefe [degC];Bodentemperatur in 60cm Tiefe [degC];Matrixpotential in 30cm Tiefe [kPa];Bodenfeuchte aus CRNS [vol%] (mrso);Neutronen Anzahl [N/h]
2022-08-01 00:00:00;18,8;101134;98;0,0131;0,0;1,9;280;4,0;0,32;-1,82;0;0;0;16,8;16,3;19,3;12,3;18,7;18,1;18,4;17,3;-108,2;16,2;1555
2022-08-01 01:00:00;18,1;101120;97;0,0125;0,0;1,4;302;2,9;0,77;-1,2;0;0;0;16,8;16,3;19,3;12,3;18,6;18,1;18,4;17,3;-108,0;16,3;1569
2022-08-01 02:00:00;17,8;101125;97;0,0123;0,0;1,2;274;2,6;0,08;-1,17;0;0;0;16,9;16,3;19,3;12,3;18,5;18,1;18,3;17,3;-108,0;16,5;1469
2022-08-01 03:00:00;17,8;101122;98;0,0123;0,0;1,2;278;2,7;0,2;-1,18;0;0;0;16,9;16,3;19,3;12,3;18,5;18,1;18,3;17,3;-107,6;16,6;1451
2022-08-01 04:00:00;17,6;101132;98;0,0122;0,0;1,1;269;2,6;-0,0;-1,06;21;0;0;16,9;16,3;19,3;12,3;18,4;18,1;18,3;17,3;-107,7;16,3;1587
2022-08-01 05:00:00;17,9;101165;99;0,0125;0,0;1,4;278;3,0;0,2;-1,33;63;0;0;17,0;16,3;19,4;12,3;18,4;18,1;18,2;17,3;-107,2;16,4;1523
2022-08-01 06:00:00;18,3;101200;99;0,0128;0,0;1,4;275;2,8;0,11;-1,43;74;0;0;17,0;16,4;19,4;12,3;18,4;18,1;18,2;17,4;-107,2;15,9;1569
2022-08-01 07:00:00;18,7;101218;98;0,0131;0,0;1,8;271;3,6;0,04;-1,78;174;0;0;17,0;16,4;19,4;12,3;18,5;18,0;18,2;17,3;-106,9;15,4;1429
2022-08-01 08:00:00;18,2;101271;97;0,0125;1,94;2,4;143;4,9;2,03;-0,09;126;0;0;17,0;16,4;19,4;12,3;18,6;18,0;18,2;17,4;-106,3;15,3;1524
2022-08-01 09:00:00;17,7;101323;100;0,0124;0,05;2,3;21;4,2;2,07;0,87;277;0;0;17,0;16,4;19,4;12,3;18,6;18,0;18,3;17,4;-106,0;15,1;1410
2022-08-01 10:00:00;18,9;101360;97;0,013;0,0;2,5;17;4,1;2,41;0,74;421;0;0;17,0;16,4;19,4;12,3;18,8;18,0;18,3;17,4;-105,9;15,1;1424
2022-08-01 11:00:00;19,3;101360;94;0,0129;0,02;2,5;31;4,4;2,1;1,27;498;0;0;17,0;16,4;19,4;12,3;19,0;18,0;18,4;17,4;-105,7;14,9;1533
2022-08-01 12:00:00;19,6;101365;90;0,0127;0,0;2,4;53;4,0;2,36;0,36;367;0;0;17,0;16,4;19,4;12,3;19,2;18,1;18,5;17,4;-105,6;14,8;1584
2022-08-01 13:00:00;20,3;101358;87;0,0128;0,0;2,6;354;4,7;2,63;-0,3;540;0;0;17,0;16,4;19,4;12,3;19,3;18,1;18,6;17,4;-105,5;14,9;1556
2022-08-01 14:00:00;21,2;101343;79;0,0122;0,0;2,2;110;4,4;2,16;0,21;405;0;0;17,0;16,4;19,4;12,3;19,4;18,1;18,7;17,4;-105,6;14,7;1546
2022-08-01 15:00:00;21,7;101347;73;0,0117;0,0;2,2;129;4,2;1,95;0,41;436;0;0;16,9;16,4;19,4;12,3;19,5;18,2;18,8;17,4;-105,5;14,7;1730
2022-08-01 16:00:00;21,7;101340;69;0,011;0,0;2,2;6;3,8;2,22;0,23;388;0;0;16,9;16,4;19,3;12,3;19,5;18,2;18,8;17,4;-105,7;14,8;2081
2022-08-01 17:00:00;21,2;101365;68;0,0105;0,0;1,8;346;3,1;1,72;-0,38;178;0;0;16,9;16,4;19,3;12,3;19,5;18,3;18,9;17,4;-105,8;14,8;1781
2022-08-01 18:00:00;20,5;101382;70;0,0103;0,0;0,9;334;2,0;0,85;-0,39;73;0;0;16,9;16,4;19,3;12,3;19,4;18,3;18,9;17,4;-105,6;15,0;1798
2022-08-01 19:00:00;18,9;101406;74;0,0099;0,0;0,7;326;1,5;0,6;-0,39;8;0;0;16,9;16,4;19,3;12,3;19,2;18,4;18,9;17,4;-105,6;15,0;1574
2022-08-01 20:00:00;16,6;101473;79;0,0092;0,0;0,6;227;1,1;0,56;-0,15;0;0;0;16,9;16,4;19,3;12,3;18,9;18,4;18,8;17,4;-105,0;14,7;1564
2022-08-01 21:00:00;14,9;101471;85;0,0088;0,0;0,4;272;0,9;0,18;-0,23;0;0;0;16,9;16,5;19,3;12,3;18,5;18,4;18,7;17,5;-104,8;14,7;1587
2022-08-01 22:00:00;13,4;101487;91;0,0086;0,0;0,3;273;0,7;0,02;-0,34;0;0;0;16,9;16,5;19,3;12,3;18,2;18,4;18,5;17,5;-104,9;14,4;1568
2022-08-01 23:00:00;12,6;101472;92;0,0083;0,0;0,3;294;0,6;0,13;-0,28;0;0;0;16,9;16,5;19,3;12,3;18,0;18,4;18,4;17,5;-104,8;13,9;1552
2022-08-02 00:00:00;12,2;101465;93;0,0081;0,0;0,4;207;0,8;-0,24;-0,23;0;0;0;16,9;16,5;19,3;12,3;17,7;18,3;18,2;17,5;-104,0;13,4;1527
2022-08-02 01:00:00;11,6;101440;97;0,0082;0,0;0,3;69;0,5;0,1;0,28;0;0;0;16,9;16,5;19,3;12,3;17,6;18,3;18,0;17,5;-104,2;12,8;1688
2022-08-02 02:00:00;11,0;101428;98;0,0079;0,0;0,4;138;0,6;-0,27;0,24;0;0;0;16,8;16,5;19,3;12,3;17,3;18,2;17,9;17,5;-103,7;12,4;1445
2022-08-02 03:00:00;10,5;101372;99;0,0077;0,0;0,4;107;0,8;-0,14;0,27;0;0;0;16,8;16,5;19,3;12,3;17,1;18,1;17,8;17,5;-103,8;11,9;1431
2022-08-02 04:00:00;10,6;101347;99;0,0078;0,0;0,3;185;0,6;0,04;0,19;29;0;0;16,8;16,5;19,3;12,3;16,9;18,0;17,6;17,5;-103,5;11,5;1600
2022-08-02 05:00:00;13,1;101345;100;0,0093;0,0;0,8;122;1,7;-0,56;0,43;120;0;0;16,8;16,5;19,3;12,3;16,9;18,0;17,5;17,5;-102,8;11,5;1457
2022-08-02 06:00:00;16,7;101333;96;0,0113;0,0;1,2;178;2,5;-1,21;0,05;240;0;0;16,8;16,5;19,3;12,3;17,0;17,9;17,4;17,5;-102,5;11,2;1558
2022-08-02 07:00:00;19,3;101314;87;0,012;0,0;1,8;194;3,6;-1,72;-0,45;343;0;0;16,8;16,5;19,3;12,3;17,3;17,8;17,4;17,5;-102,3;10,9;1643
2022-08-02 08:00:00;22,0;101280;70;0,0114;0,0;2,5;207;5,1;-2,17;-1,15;472;0;0;16,8;16,5;19,3;12,3;17,7;17,8;17,4;17,5;-102,2;10,5;1497
2022-08-02 09:00:00;23,5;101253;64;0,0114;0,0;3,0;220;6,1;-2,28;-1,99;525;0;0;16,7;16,5;19,3;12,3;18,1;17,7;17,6;17,5;-102,1;10,3;1646
2022-08-02 10:00:00;24,6;101233;63;0,012;0,0;4,4;248;8,0;-1,62;-4,09;590;0;0;16,5;16,5;19,2;12,3;18,6;17,7;17,8;17,5;-102,8;10,2;1840
2022-08-02 11:00:00;25,0;101225;59;0,0116;0,0;4,7;254;8,9;-1,21;-4,53;458;0;0;16,4;16,5;19,2;12,3;18,9;17,7;18,0;17,5;-103,3;10,1;1877
2022-08-02 12:00:00;25,9;101204;54;0,0112;0,0;4,4;255;8,1;-1,12;-4,27;621;0;0;16,2;16,5;19,1;12,3;19,1;17,8;18,2;17,5;-103,7;10,1;2048
2022-08-02 13:00:00;26,8;101192;50;0,0109;0,0;3,9;250;7,2;-1,26;-3,57;611;0;0;16,1;16,5;19,0;12,3;19,4;17,8;18,3;17,5;-104,4;10,1;1965
2022-08-02 14:00:00;27,2;101163;48;0,0107;0,0;4,1;247;8,0;-1,56;-3,81;560;0;0;15,9;16,5;19,0;12,2;19,6;17,9;18,5;17,5;-105,1;10,3;1972
2022-08-02 15:00:00;27,6;101125;47;0,0106;0,0;3,6;258;6,7;-0,68;-3,4;498;0;0;15,8;16,5;18,9;12,2;19,6;18,0;18,7;17,5;-105,7;10,1;2071
2022-08-02 16:00:00;27,7;101076;46;0,0106;0,0;3,2;250;6,4;-1,07;-3,02;295;0;0;15,7;16,5;18,9;12,2;19,7;18,1;18,8;17,5;-105,9;9,9;2224
2022-08-02 17:00:00;27,4;101045;46;0,0105;0,0;3,3;255;5,6;-0,78;-3,19;201;0;0;15,6;16,5;18,9;12,2;19,7;18,2;18,9;17,5;-106,2;9,8;2104
2022-08-02 18:00:00;26,7;101047;48;0,0103;0,0;2,6;260;4,7;-0,45;-2,6;73;0;0;15,6;16,5;18,8;12,2;19,6;18,2;18,9;17,4;-106,2;9,7;2122
2022-08-02 19:00:00;24,7;101055;54;0,0104;0,0;0,8;242;1,6;-0,2;-0,72;7;0;0;15,6;16,5;18,8;12,2;19,4;18,3;18,9;17,5;-106,5;9,6;1974
2022-08-02 20:00:00;21,4;101085;68;0,0107;0,0;0,4;180;0,6;-0,31;0,02;0;0;0;15,6;16,5;18,8;12,2;19,2;18,3;18,9;17,5;-106,8;9,5;1799
2022-08-02 21:00:00;19,9;101103;78;0,0111;0,0;0,4;197;0,8;-0,33;-0,11;0;0;0;15,6;16,5;18,8;12,2;19,0;18,4;18,8;17,5;-106,6;9,3;1623
2022-08-02 22:00:00;18,9;101100;85;0,0115;0,0;0,6;247;1,6;0,35;-0,17;0;0;0;15,6;16,5;18,8;12,2;18,8;18,4;18,7;17,5;-106,0;9,0;1426
2022-08-02 23:00:00;18,1;101104;86;0,0111;0,0;0,4;201;0,6;-0,3;-0,1;0;0;0;15,6;16,5;18,7;12,2;18,6;18,4;18,6;17,5;-105,8;8,8;1530
2022-08-03 00:00:00;17,4;101105;90;0,0111;0,0;0,4;255;0,7;-0,08;-0,34;0;0;0;15,5;16,5;18,7;12,2;18,5;18,4;18,5;17,5;-105,7;8,7;1574
2022-08-03 01:00:00;16,7;101078;94;0,011;0,0;0,4;172;0,7;-0,27;0,08;0;0;0;15,5;16,5;18,7;12,2;18,4;18,3;18,4;17,5;-105,6;8,7;1542
2022-08-03 02:00:00;16,1;101067;95;0,0107;0,0;0,3;168;0,8;-0,05;-0,16;0;0;0;15,5;16,5;18,7;12,2;18,2;18,3;18,4;17,5;-105,4;8,7;1621
2022-08-03 03:00:00;15,6;101038;96;0,0106;0,0;0,4;149;0,8;-0,15;0,14;0;0;0;15,5;16,5;18,7;12,3;18,1;18,3;18,3;17,6;-105,1;8,9;1672
2022-08-03 04:00:00;16,4;101023;95;0,0109;0,0;0,3;191;0,6;-0,22;-0,09;28;0;0;15,5;16,5;18,7;12,3;17,9;18,2;18,2;17,6;-104,8;9,2;1659
2022-08-03 05:00:00;18,6;101050;93;0,0124;0,0;0,8;191;1,8;-0,67;-0,31;116;0;0;15,5;16,5;18,7;12,3;17,9;18,2;18,1;17,6;-104,6;9,2;1608
2022-08-03 06:00:00;21,4;101067;82;0,013;0,0;2,0;223;4,0;-1,42;-1,36;237;0;0;15,5;16,5;18,7;12,3;18,0;18,1;18,0;17,6;-104,4;9,5;1622
2022-08-03 07:00:00;23,5;101084;73;0,013;0,0;3,0;249;5,1;-1,01;-2,77;370;0;0;15,5;16,5;18,7;12,3;18,3;18,1;18,0;17,6;-104,2;10,0;1761
2022-08-03 08:00:00;25,1;101100;66;0,0129;0,0;3,2;247;5,6;-1,24;-2,92;492;0;0;15,4;16,5;18,6;12,3;18,6;18,1;18,1;17,6;-104,4;9,8;1743
2022-08-03 09:00:00;27,0;101100;59;0,013;0,0;3,2;238;6,2;-1,66;-2,7;574;0;0;15,2;16,5;18,6;12,3;19,0;18,1;18,2;17,6;-105,1;9,7;1931
2022-08-03 10:00:00;27,7;101097;54;0,0123;0,0;3,9;251;7,1;-1,23;-3,7;654;0;0;15,1;16,5;18,5;12,2;19,5;18,1;18,4;17,6;-105,8;9,4;2065
2022-08-03 11:00:00;28,7;101063;49;0,0119;0,0;3,5;254;6,4;-0,9;-3,35;691;0;0;14,9;16,5;18,4;12,2;19,9;18,1;18,6;17,6;-106,7;9,6;2007
2022-08-03 12:00:00;29,7;101032;46;0,0119;0,0;3,6;268;6,7;-0,05;-3,6;696;0;0;14,6;16,5;18,3;12,2;20,3;18,2;18,9;17,6;-107,9;9,3;2012
2022-08-03 13:00:00;30,5;101027;45;0,012;0,0;3,1;258;6,1;-0,6;-3,04;664;0;0;14,4;16,5;18,2;12,2;20,5;18,3;19,1;17,6;-109,0;9,0;1979
2022-08-03 14:00:00;30,9;101013;43;0,0119;0,0;3,0;258;6,3;-0,58;-2,86;595;0;0;14,3;16,4;18,1;12,2;20,7;18,4;19,3;17,6;-110,2;8,9;2318
2022-08-03 15:00:00;30,7;100970;43;0,0118;0,0;2,7;272;5,3;0,07;-2,68;418;0;0;14,1;16,4;18,1;12,2;20,6;18,5;19,5;17,6;-111,2;8,7;2335
2022-08-03 16:00:00;30,7;100960;44;0,0119;0,0;1,5;276;3,9;0,16;-1,5;339;0;0;14,0;16,4;18,0;12,2;20,7;18,6;19,6;17,6;-112,0;8,6;2433
2022-08-03 17:00:00;30,4;100955;45;0,0121;0,0;1,2;294;3,4;0,48;-1,12;248;0;0;13,9;16,4;17,9;12,2;20,8;18,6;19,7;17,6;-112,7;8,8;2404
2022-08-03 18:00:00;27,2;100957;56;0,0125;0,0;0,6;10;1,0;0,61;0,11;25;0;0;13,9;16,4;17,9;12,2;20,7;18,7;19,7;17,6;-113,4;8,6;2542
2022-08-03 19:00:00;25,9;100962;58;0,012;0,0;0,7;30;1,2;0,62;0,26;4;0;0;13,9;16,4;17,9;12,2;20,4;18,8;19,7;17,6;-113,7;8,4;2081
2022-08-03 20:00:00;24,0;100986;65;0,0121;0,0;0,5;52;1,0;0,26;0,28;0;0;0;13,9;16,4;17,9;12,2;20,1;18,9;19,7;17,6;-113,1;8,5;1920
2022-08-03 21:00:00;22,7;100962;71;0,0121;0,0;0,7;84;1,2;0,03;0,67;0;0;0;13,9;16,4;17,9;12,2;19,9;18,9;19,6;17,7;-113,6;8,5;1825
2022-08-03 22:00:00;22,0;100943;73;0,0121;0,0;0,7;101;1,3;-0,15;0,68;0;0;0;13,8;16,4;17,8;12,2;19,7;18,9;19,5;17,7;-113,5;8,5;1639
2022-08-03 23:00:00;21,4;100932;76;0,012;0,0;0,8;105;1,1;-0,21;0,76;0;0;0;13,8;16,4;17,8;12,2;19,5;18,9;19,4;17,7;-113,4;8,4;1787
2022-08-04 00:00:00;21,2;100898;76;0,0119;0,0;1,0;123;1,7;-0,52;0,8;0;0;0;13,8;16,4;17,8;12,2;19,3;18,9;19,3;17,7;-112,8;8,6;1550
2022-08-04 01:00:00;22,2;100878;71;0,0117;0,0;1,6;126;2,8;-1,01;1,29;0;0;0;13,9;16,4;17,8;12,2;19,2;18,9;19,2;17,7;-112,9;8,6;1710
2022-08-04 02:00:00;21,8;100843;71;0,0115;0,0;1,3;127;2,0;-0,77;1,01;0;0;0;13,9;16,4;17,8;12,2;19,2;18,9;19,1;17,8;-112,7;8,5;1775
2022-08-04 03:00:00;21,6;100802;73;0,0116;0,0;1,4;124;2,5;-0,79;1,16;0;0;0;13,9;16,4;17,8;12,2;19,1;18,8;19,0;17,8;-112,6;8,4;1764
2022-08-04 04:00:00;21,3;100758;75;0,0117;0,0;0,9;136;1,6;-0,59;0,56;19;0;0;13,9;16,4;17,8;12,2;19,0;18,8;19,0;17,8;-112,4;8,3;1577
2022-08-04 05:00:00;22,1;100767;75;0,0123;0,0;1,1;156;1,9;-1,04;0,47;81;0;0;13,8;16,4;17,7;12,2;19,0;18,8;18,9;17,8;-112,3;8,1;1815
2022-08-04 06:00:00;23,3;100764;72;0,0128;0,0;1,8;149;2,9;-1,53;0,94;195;0;0;13,8;16,4;17,7;12,2;19,1;18,7;18,9;17,9;-112,2;8,2;1800
2022-08-04 07:00:00;25,8;100752;64;0,0133;0,0;1,9;199;3,7;-1,47;-0,55;361;0;0;13,8;16,4;17,7;12,2;19,2;18,7;18,9;17,8;-112,4;8,1;1728
2022-08-04 08:00:00;27,8;100760;58;0,0134;0,0;2,0;229;3,9;-1,3;-1,54;482;0;0;13,7;16,4;17,6;12,2;19,5;18,7;18,9;17,9;-112,4;8,3;1810
2022-08-04 09:00:00;29,4;100770;54;0,0137;0,0;2,4;256;4,4;-0,5;-2,3;512;0;0;13,5;16,4;17,6;12,2;20,0;18,7;19,0;17,9;-112,7;8,6;1980
2022-08-04 10:00:00;30,9;100790;48;0,0135;0,0;2,8;269;4,9;-0,09;-2,8;636;0;0;13,3;16,4;17,5;12,2;20,4;18,7;19,2;17,9;-114,3;8,6;2150
2022-08-04 11:00:00;30,9;100833;46;0,0129;0,0;4,1;263;7,3;-0,46;-4,03;495;0;0;13,1;16,4;17,4;12,2;20,7;18,7;19,4;17,9;-115,7;8,7;2317
2022-08-04 12:00:00;26,9;100927;62;0,0136;0,0;3,0;314;6,2;1,79;-2,24;286;0;0;13,0;16,4;17,3;12,2;20,6;18,8;19,6;17,9;-116,6;8,6;2031
2022-08-04 13:00:00;27,2;100885;66;0,0146;0,0;1,9;348;3,7;1,84;-0,36;667;0;0;12,9;16,4;17,3;12,2;20,7;18,9;19,7;17,9;-117,4;8,9;2028
2022-08-04 14:00:00;27,0;100918;62;0,0138;0,0;1,8;314;3,8;1,26;-1,32;322;0;0;12,8;16,3;17,2;12,2;21,0;18,9;19,8;17,9;-118,0;9,1;1917
2022-08-04 15:00:00;25,9;100914;68;0,0141;0,0;2,2;326;4,8;1,88;-1,17;322;0;0;12,7;16,3;17,1;12,2;21,0;19,0;19,9;17,9;-119,8;9,4;1946
2022-08-04 16:00:00;25,6;100917;69;0,0141;0,0;1,9;332;4,1;1,63;-0,86;240;0;0;12,6;16,3;17,1;12,2;21,0;19,1;20,0;17,9;-120,1;9,3;2021
2022-08-04 17:00:00;25,3;100887;70;0,014;0,0;1,6;121;3,0;1,55;0,02;149;0;0;12,6;16,3;17,0;12,2;20,9;19,1;20,0;17,9;-121,2;9,3;1817
2022-08-04 18:00:00;24,9;100922;67;0,013;0,0;1,9;123;3,5;1,89;0,12;50;0;0;12,5;16,3;17,0;12,2;20,8;19,2;20,1;18,0;-121,7;9,5;1923
2022-08-04 19:00:00;23,2;100987;66;0,0116;0,0;2,6;239;4,8;2,59;-0,13;3;0;0;12,5;16,3;17,0;12,2;20,6;19,2;20,0;17,9;-122,6;9,8;1846
2022-08-04 20:00:00;21,4;101050;70;0,011;0,0;2,4;292;4,7;2,36;-0,32;0;0;0;12,5;16,3;16,9;12,2;20,3;19,3;20,0;18,0;-122,8;10,1;1709
2022-08-04 21:00:00;20,8;101110;73;0,0111;0,0;1,8;340;3,4;1,71;-0,6;0;0;0;12,5;16,3;16,9;12,2;20,1;19,3;19,9;18,0;-123,0;10,4;1741
2022-08-04 22:00:00;19,2;101200;84;0,0115;6,73;2,9;297;6,2;0,49;-2,58;0;2;11;12,6;16,3;17,1;12,2;19,8;19,3;19,7;18,0;-122,6;10,9;1578
2022-08-04 23:00:00;17,2;101005;98;0,0119;0,15;nan;nan;nan;nan;nan;0;0;0;12,9;16,3;17,3;12,2;19,6;19,3;19,6;18,0;-122,8;11,5;1330
2022-08-05 00:00:00;nan;nan;nan;nan;0,0;nan;nan;nan;nan;nan;nan;0;nan;13,2;16,3;17,3;12,2;19,5;19,2;19,5;18,1;-122,4;nan;nan
2022-08-05 01:00:00;16,8;101040;100;0,0117;0,0;nan;nan;nan;nan;nan;0;0;0;13,4;16,3;17,4;12,2;19,4;19,2;19,4;18,1;-121,3;11,5;1518
2022-08-05 02:00:00;16,6;101100;99;0,0116;0,0;nan;nan;nan;nan;nan;0;0;0;13,6;16,3;17,5;12,2;19,3;19,2;19,3;18,1;-120,6;11,9;1555
2022-08-05 03:00:00;16,2;101035;99;0,0112;0,15;nan;nan;nan;nan;nan;0;0;0;13,7;16,3;17,6;12,2;19,3;19,1;19,3;18,1;-120,3;12,3;1493
2022-08-05 04:00:00;nan;nan;nan;nan;0,0;nan;nan;nan;nan;nan;nan;0;nan;13,9;16,3;17,6;12,2;19,1;19,1;19,2;18,1;-119,7;nan;nan
2022-08-05 05:00:00;16,0;101037;98;0,011;0,0;2,4;12;4,3;2,35;0,5;9;0;0;14,0;16,3;17,7;12,2;19,1;19,1;19,1;18,1;-119,6;12,7;1789
2022-08-05 06:00:00;15,1;101099;99;0,0105;2,99;2,8;198;4,8;2,63;-0,39;15;0;0;14,1;16,3;17,7;12,2;18,9;19,0;19,0;18,1;-118,7;13,2;1577
2022-08-05 07:00:00;15,2;101154;98;0,0105;0,14;2,1;83;4,0;1,97;0,4;37;0;0;14,3;16,3;17,8;12,2;18,7;19,0;18,9;18,1;-118,0;14,2;1556
2022-08-05 08:00:00;15,5;101215;100;0,0108;0,03;1,5;265;3,8;1,5;-0,15;106;0;0;14,4;16,4;17,8;12,2;18,7;18,9;18,8;18,2;-118,4;14,4;1552
2022-08-05 09:00:00;16,2;101270;100;0,0114;0,0;1,3;8;2,7;1,27;0,18;278;0;0;14,7;16,4;17,9;12,2;18,8;18,9;18,8;18,2;-117,8;14,9;1391
2022-08-05 10:00:00;17,7;101340;97;0,0122;0,0;1,2;236;2,8;0,82;-0,64;373;0;0;14,9;16,4;17,9;12,2;19,0;18,8;18,8;18,2;-117,4;15,3;1554
2022-08-05 11:00:00;19,3;101378;86;0,0118;0,0;1,8;318;4,0;1,4;-0,99;411;0;0;15,0;16,4;18,0;12,2;19,3;18,8;18,9;18,2;-117,2;15,7;1471
2022-08-05 12:00:00;20,6;101400;66;0,0099;0,0;2,5;338;5,3;2,31;-0,91;465;0;0;15,1;16,4;18,0;12,2;19,5;18,8;19,0;18,2;-117,2;15,8;1681
2022-08-05 13:00:00;22,0;101463;52;0,0084;0,0;3,7;339;8,0;3,48;-1,31;756;0;0;15,2;16,4;18,0;12,2;19,6;18,8;19,1;18,1;-117,5;15,9;1713
2022-08-05 14:00:00;21,3;101523;50;0,0078;0,0;4,1;340;7,4;3,86;-1,38;599;0;0;15,2;16,4;18,0;12,2;19,6;18,8;19,1;18,1;-117,8;15,8;1683
2022-08-05 15:00:00;20,1;101573;56;0,0081;0,0;4,0;351;7,5;3,91;-0,56;307;0;0;15,3;16,4;18,0;12,2;19,5;18,9;19,2;18,1;-118,0;15,6;1680
2022-08-05 16:00:00;19,8;101603;55;0,0078;0,0;4,0;235;7,4;3,96;-0,28;280;0;0;15,3;16,3;18,0;12,2;19,3;18,9;19,1;18,1;-119,0;15,6;1590
2022-08-05 17:00:00;19,3;101646;58;0,0079;0,0;2,9;347;5,5;2,87;-0,66;201;0;0;15,3;16,3;18,0;12,2;19,1;18,9;19,1;18,1;-118,8;15,2;1573
2022-08-05 18:00:00;17,9;101730;64;0,008;0,0;2,8;350;5,0;2,72;-0,44;52;0;0;15,3;16,4;18,0;12,2;19,0;18,9;19,0;18,1;-119,2;15,5;1293
2022-08-05 19:00:00;16,3;101820;69;0,0079;0,0;1,5;338;2,7;1,39;-0,55;5;0;0;15,4;16,4;18,1;12,2;18,8;18,9;18,9;18,1;-119,6;15,6;1590
2022-08-05 20:00:00;14,9;101922;74;0,0077;0,0;1,3;336;2,3;1,2;-0,52;0;0;0;15,4;16,4;18,1;12,2;18,5;18,8;18,8;18,1;-118,1;15,6;1549
2022-08-05 21:00:00;13,8;101978;77;0,0075;0,0;1,0;330;2,0;0,88;-0,48;0;0;0;15,4;16,4;18,1;12,2;18,2;18,8;18,7;18,1;-118,2;15,4;1531
2022-08-05 22:00:00;13,1;102002;78;0,0072;0,0;1,2;326;2,2;1,02;-0,57;0;0;0;15,5;16,4;18,1;12,2;18,0;18,8;18,5;18,1;-118,0;15,1;1384
2022-08-05 23:00:00;11,6;102052;86;0,0071;0,0;0,8;268;1,5;-0,02;-0,8;0;0;0;15,5;16,4;18,1;12,2;17,8;18,7;18,4;18,1;-118,2;15,1;1581
2022-08-06 00:00:00;10,9;102092;89;0,0071;0,0;1,1;271;1,5;0,0;-1,06;0;0;0;15,5;16,4;18,1;12,2;17,5;18,7;18,2;18,1;-117,7;14,8;1448
2022-08-06 01:00:00;10,1;102134;92;0,007;0,0;0,7;268;1,2;-0,02;-0,69;0;0;0;15,5;16,4;18,1;12,2;17,3;18,6;18,1;18,1;-117,5;14,6;1563
2022-08-06 02:00:00;10,1;102153;92;0,007;0,0;1,2;265;1,8;-0,09;-1,21;0;0;0;15,5;16,4;18,2;12,2;17,1;18,5;17,9;18,1;-117,5;14,3;1537
2022-08-06 03:00:00;9,7;102173;94;0,0069;0,0;1,0;245;1,4;-0,33;-0,9;0;0;0;15,6;16,4;18,2;12,2;17,0;18,4;17,8;18,1;-117,4;14,2;1482
2022-08-06 04:00:00;8,7;102200;97;0,0067;0,0;0,6;222;1,0;-0,14;-0,53;25;0;0;15,6;16,4;18,2;12,2;16,7;18,3;17,6;18,1;-117,0;14,2;1669
2022-08-06 05:00:00;11,5;102265;100;0,0083;0,0;0,8;316;1,5;0,61;-0,34;145;0;0;15,6;16,4;18,2;12,2;16,6;18,2;17,5;18,1;-116,9;14,0;1479
2022-08-06 06:00:00;14,4;102306;91;0,0091;0,0;0,9;324;1,7;0,73;-0,53;251;0;0;15,6;16,4;18,2;12,2;16,6;18,1;17,3;18,1;-117,0;13,8;1405
2022-08-06 07:00:00;15,8;102324;82;0,0089;0,0;1,3;344;2,6;1,22;-0,33;381;0;0;15,6;16,4;18,2;12,2;16,8;18,1;17,3;18,0;-116,3;13,2;1415
2022-08-06 08:00:00;17,0;102340;74;0,0087;0,0;1,5;344;3,4;1,45;-0,41;416;0;0;15,6;16,4;18,2;12,2;17,1;18,0;17,3;18,0;-115,9;13,3;1583
2022-08-06 09:00:00;17,6;102345;69;0,0085;0,0;1,3;321;3,0;0,98;-0,79;458;0;0;15,5;16,4;18,2;12,2;17,4;17,9;17,4;18,0;-116,1;13,3;1482
2022-08-06 10:00:00;18,8;102346;65;0,0087;0,0;1,8;69;4,3;1,66;-0,07;676;0;0;15,4;16,4;18,1;12,2;17,8;17,9;17,5;18,0;-116,8;13,4;1486
2022-08-06 11:00:00;19,2;102320;60;0,008;0,0;1,8;182;3,9;1,76;0,11;562;0;0;15,3;16,4;18,1;12,2;18,2;17,9;17,7;18,0;-117,3;13,0;1608
2022-08-06 12:00:00;20,2;102308;55;0,0079;0,0;1,5;176;4,1;1,08;0,06;494;0;0;15,2;16,4;18,1;12,2;18,6;17,9;17,9;17,9;-117,7;13,0;1728
2022-08-06 13:00:00;19,8;102287;54;0,0076;0,0;1,6;292;3,5;1,56;-0,19;295;0;0;15,2;16,3;18,0;12,2;18,7;17,9;18,1;17,9;-118,0;12,9;1757
2022-08-06 14:00:00;19,6;102265;58;0,0082;0,0;2,2;347;4,5;2,09;-0,49;390;0;0;15,1;16,3;18,0;12,2;18,6;18,0;18,2;17,9;-118,9;12,8;1671
2022-08-06 15:00:00;20,4;102225;55;0,0081;0,0;1,9;94;4,0;1,87;0,13;447;0;0;15,1;16,3;18,0;12,2;18,7;18,0;18,2;17,9;-119,6;12,7;1649
2022-08-06 16:00:00;19,8;102214;56;0,0079;0,0;2,0;55;4,0;2,04;0,14;280;0;0;15,0;16,3;18,0;12,2;18,6;18,1;18,3;17,8;-120,1;12,8;1635
2022-08-06 17:00:00;19,5;102185;56;0,0078;0,0;2,0;80;4,2;1,8;0,7;172;0;0;15,0;16,3;18,0;12,2;18,7;18,1;18,3;17,8;-120,1;13,1;1670
2022-08-06 18:00:00;18,5;102178;60;0,0079;0,0;1,4;36;2,5;1,1;0,72;64;0;0;15,0;16,3;17,9;12,2;18,6;18,2;18,4;17,8;-120,2;13,0;1617
2022-08-06 19:00:00;16,6;102224;70;0,008;0,0;0,8;143;1,4;0,65;-0,06;4;0;0;15,0;16,3;17,9;12,2;18,3;18,2;18,3;17,8;-120,2;12,8;1531
2022-08-06 20:00:00;14,5;102270;79;0,008;0,0;0,7;331;1,0;0,62;-0,34;0;0;0;15,0;16,3;17,9;12,2;18,0;18,2;18,2;17,8;-120,1;12,6;1474
2022-08-06 21:00:00;13,0;102280;86;0,0078;0,0;0,4;310;0,7;0,22;-0,27;0;0;0;15,0;16,4;17,9;12,2;17,6;18,2;18,1;17,8;-119,7;12,7;1466
2022-08-06 22:00:00;12,2;102265;88;0,0076;0,0;0,5;288;0,8;0,23;-0,36;0;0;0;15,0;16,4;17,9;12,2;17,4;18,2;17,9;17,8;-119,8;12,4;1575
2022-08-06 23:00:00;11,3;102230;92;0,0076;0,0;0,3;219;0,6;-0,01;0,06;0;0;0;15,0;16,4;17,9;12,2;17,1;18,1;17,8;17,8;-118,6;11,8;1573
2022-08-07 00:00:00;10,6;102212;96;0,0075;0,0;0,3;222;0,6;-0,04;-0,07;0;0;0;14,9;16,4;17,9;12,2;16,9;18,1;17,6;17,8;-118,6;11,5;1534
2022-08-07 01:00:00;10,2;102195;95;0,0072;0,0;0,7;324;1,1;0,53;-0,38;0;0;0;14,9;16,4;17,9;12,2;16,7;18,0;17,4;17,8;-118,5;11,4;1592
2022-08-07 02:00:00;9,6;102163;97;0,0071;0,0;0,3;118;0,6;-0,18;0,24;0;0;0;14,9;16,4;17,9;12,2;16,5;17,9;17,3;17,8;-118,1;11,3;1625
2022-08-07 03:00:00;9,4;102138;98;0,007;0,0;0,3;170;0,6;-0,18;0,09;0;0;0;14,9;16,4;17,9;12,2;16,3;17,9;17,2;17,8;-117,8;11,0;1405
2022-08-07 04:00:00;9,8;102125;96;0,0071;0,0;0,4;282;0,7;0,37;-0,17;28;0;0;14,9;16,4;17,9;12,2;16,1;17,8;17,0;17,8;-117,8;10,8;1510
2022-08-07 05:00:00;11,4;102152;100;0,0082;0,0;0,2;198;0,5;0,03;-0,03;114;0;0;14,9;16,4;17,9;12,2;16,1;17,7;16,9;17,8;-117,6;10,5;1530
2022-08-07 06:00:00;14,7;102163;91;0,0093;0,0;0,6;65;1,1;0,25;0,46;232;0;0;14,9;16,4;17,9;12,2;16,2;17,6;16,8;17,7;-117,5;10,3;1595
2022-08-07 07:00:00;17,2;102150;80;0,0096;0,0;0,6;94;1,6;0,57;0,17;340;0;0;14,9;16,4;17,9;12,2;16,4;17,5;16,8;17,7;-117,6;10,1;1523
2022-08-07 08:00:00;19,8;102134;64;0,0091;0,0;1,0;49;2,4;0,6;0,64;489;0;0;14,8;16,4;17,9;12,2;16,8;17,5;16,8;17,7;-117,4;10,1;1572
2022-08-07 09:00:00;20,6;102115;57;0,0085;0,0;1,3;171;3,3;1,2;-0,19;554;0;0;14,7;16,3;17,8;12,2;17,2;17,4;17,0;17,7;-117,7;10,0;1746
2022-08-07 10:00:00;21,1;102078;54;0,0083;0,0;1,7;208;3,8;1,54;-0,12;556;0;0;14,6;16,3;17,8;12,2;17,6;17,4;17,1;17,6;-118,3;9,9;1963
2022-08-07 11:00:00;21,9;102016;51;0,0082;0,0;1,7;307;4,1;1,02;-1,27;717;0;0;14,5;16,3;17,7;12,2;18,1;17,4;17,3;17,6;-119,2;9,9;1890
2022-08-07 12:00:00;22,6;101983;47;0,0079;0,0;1,7;327;4,3;1,42;-0,78;717;0;0;14,3;16,3;17,7;12,2;18,6;17,5;17,6;17,6;-120,4;9,8;1849
2022-08-07 13:00:00;22,7;101950;46;0,0077;0,0;1,7;187;4,2;1,42;0,23;499;0;0;14,2;16,3;17,6;12,2;18,9;17,5;17,8;17,6;-121,7;9,7;1924
2022-08-07 14:00:00;23,2;101908;46;0,008;0,0;1,8;106;3,9;1,3;0,8;588;0;0;14,0;16,3;17,5;12,2;18,9;17,6;18,0;17,6;-123,2;9,7;1975
2022-08-07 15:00:00;23,0;101870;46;0,0079;0,0;1,9;10;4,2;1,87;0,35;408;0;0;14,0;16,3;17,5;12,2;18,8;17,7;18,1;17,5;-123,9;9,7;1879
2022-08-07 16:00:00;22,4;101862;48;0,008;0,0;1,7;213;3,4;1,64;-0,02;214;0;0;13,9;16,3;17,5;12,2;18,8;17,8;18,2;17,5;-124,4;9,5;1938
2022-08-07 17:00:00;22,2;101847;47;0,0077;0,0;1,7;22;3,3;1,53;0,63;184;0;0;13,8;16,3;17,4;12,2;18,7;17,8;18,2;17,5;-125,5;9,4;1925
2022-08-07 18:00:00;20,8;101858;52;0,0079;0,0;1,7;130;3,5;1,63;0,4;65;0;0;13,8;16,3;17,4;12,2;18,6;17,9;18,2;17,5;-125,8;9,3;1789
2022-08-07 19:00:00;18,6;101900;60;0,0078;0,0;1,6;120;2,8;1,59;0,01;2;0;0;13,8;16,3;17,4;12,2;18,4;17,9;18,2;17,5;-126,1;9,5;1639
2022-08-07 20:00:00;17,0;101967;66;0,0078;0,0;1,5;237;2,7;1,47;-0,06;0;0;0;13,8;16,3;17,4;12,2;18,1;18,0;18,1;17,5;-125,9;9,4;1596
2022-08-07 21:00:00;16,0;101996;69;0,0077;0,0;1,6;144;2,6;1,58;0,04;0;0;0;13,8;16,3;17,4;12,2;17,8;18,0;18,0;17,5;-126,0;9,5;1576
2022-08-07 22:00:00;15,2;102003;74;0,0079;0,0;1,5;121;2,7;1,51;0,04;0;0;0;13,7;16,3;17,4;12,2;17,6;18,0;17,9;17,5;-126,1;9,6;1640
2022-08-07 23:00:00;14,2;102028;80;0,0079;0,0;1,3;120;2,3;1,34;0,01;0;0;0;13,8;16,3;17,4;12,2;17,4;17,9;17,8;17,5;-126,0;9,9;1646
2022-08-08 00:00:00;13,6;102016;86;0,0082;0,0;1,3;286;2,1;1,26;-0,03;0;0;0;13,7;16,3;17,3;12,2;17,3;17,9;17,7;17,5;-125,8;9,9;1653
2022-08-08 01:00:00;13,3;102010;90;0,0085;0,0;1,0;10;1,9;0,99;0,17;0;0;0;13,7;16,3;17,3;12,2;17,2;17,9;17,6;17,5;-125,5;9,9;1570
2022-08-08 02:00:00;13,1;102010;92;0,0085;0,0;1,0;14;2,2;1,0;0,25;0;0;0;13,7;16,3;17,3;12,2;17,0;17,8;17,5;17,5;-125,0;10,0;1643
2022-08-08 03:00:00;12,9;102008;93;0,0084;0,0;0,9;28;1,9;0,81;0,43;0;0;0;13,7;16,3;17,3;12,2;16,9;17,8;17,4;17,5;-124,8;10,2;1594
2022-08-08 04:00:00;12,6;102023;94;0,0084;0,0;1,0;125;1,7;1,02;0,1;28;0;0;13,7;16,3;17,3;12,2;16,8;17,7;17,3;17,5;-125,2;10,2;1600
2022-08-08 05:00:00;14,2;102072;94;0,0093;0,0;1,1;10;2,2;1,12;0,21;126;0;0;13,7;16,3;17,3;12,2;16,7;17,7;17,2;17,5;-125,3;10,2;1595
2022-08-08 06:00:00;15,7;102077;89;0,0097;0,0;2,0;9;3,5;1,98;0,34;214;0;0;13,7;16,3;17,3;12,2;16,8;17,6;17,1;17,5;-124,2;10,2;1450